Location: Unspecified
(0.0000°N, 0.0000°E)
Time: 12:20:50
(UTC+00:00)

CUTE-I - Pass Details

Date: 13 December 2017
Orbit: 810 x 826 km, 98.7° (Epoch: 21 January)

Event Time Altitude Azimuth Distance (km) Brightness Sun altitude
Rises 18:28:29 0° 182° (S) 3,359 ? -7.8°
Reaches altitude 10° 18:30:58 10° 189° (S) 2,425 ? -8.4°
Maximum altitude 18:35:57 40° 257° (WSW) 1,205 ? -9.5°
Drops below altitude 10° 18:40:56 10° 326° (NW) 2,418 ? -10.7°
Sets 18:43:25 0° 333° (NNW) 3,348 ? -11.2°
